Showing default

LEMUR 2 STELLA, 60533

Orbit data source: Space-Track

LEMUR 2 STELLA, 60533 is a payload satellite owned by Spire (US) in SSO that was launched on Fri, 16 Aug 2024 UTC via an FALCON 9 launch vehicle from the Air Force Western Test Range (AFWTR). Payload-class satellites include a variety of spacecraft equipped with specific instruments for various scientific and technological missions. These include communications satellites like Starlink; space stations such as the ISS; scientific satellites like the Hubble; Earth observation satellites from companies like Planet Labs, Umbra, and HawkEye 360; GPS; miniature CubeSats for education and research; and military/defense satellites.

Loading next visibility...
Identifier
60533, 2024-149BT
Orbit
SSO
Country
Flag of USUS
Related business
Manufacturer
Spire/Glasgow
Mission
Operational Commercial Com/MetRO
Bus & Motor
CUBESAT 3U, Unknown motor
Mass
7.6 kg wet, 7.6 kg dry
Launch date (UTC)
2024-08-16 (1 year ago)
Launch vehicle
FALCON 9
Launch site
Air Force Western Test Range (AFWTR)
Object type
Payload
Rocket body
Debris
Shape & HBR
Box + 2 Pan, 0.5 m
Radar Cross Section
0.063 m², Medium (>0.1 m² and < 1m²)

Expand to show TLE details & history
Last TLE update: 16 hours ago

TLE from 16 hours ago
0 LEMUR 2 STELLA
1 60533U 24149BT  25340.83380459  .00022113  00000-0  14920-2 0  9998
2 60533  97.6911  58.0264 0000817  64.5036 295.6276 15.06635728 71487
Epoch: 2025-12-06T20:00Z
TLE epoch observation values (Epoch: 2025-12-06T20:00:40.716Z)
Latitude
0.00002°
Longitude
42.00088°
Altitude
549.308 km
Speed
7.587 km/s
True Right ascension
03h 52m 06s
True Declination
0° 00' 00"
Sunlit
Object was in full shadow at epoch
Visualization orbit readout
Latitude
Unknown
Longitude
Unknown
Altitude
Unknown
Speed
Unknown
Apparent Right ascension
Unknown
Apparent Declination
Unknown
Sunlit
N/A
Visualization observer readout
Local Sidereal Time
09:46:24
Azimuth
Unknown
Elevation
Unknown
Doppler factor
Unknown
Orbital elements
Apogee altitude
544.051 km
Perigee altitude
542.92 km
Semi-major axis
6,921.622 km
Eccentricity
0.00008
Inclination
97.6911°
RAAN
58.0264°
Arg. of periapsis
64.5036°
True anomaly
295.61916°
Mean anomaly
295.6276°
Eccentric anomaly
295.62338°
Mean motion
3.76905 °/min
Orbital period
95.51 mins
BSTAR
0.001492
Loading maneuver chart data...
Computing Atmospheric mass density...
Loading historical data...
Loading historical data...
Loading historical data...
Loading historical data...
Loading historical data...
Loading historical data...
Loading historical data...

Documentation

Showing up to 5 results
|